Regional Weather Roundup
Issued by NWS

Home | Current Version | Previous Version | Graphics & Text | Print | Product List | Glossary On
Versions: 1 2 3 4 5 6 7 8 9 10 11 12 13 14 15 16 17 18 19 20 21 22 23 24 25 26 27 28 29 30 31 32 33 34 35 36 37 38 39 40 41 42 43 44 45 46 47 48 49 50
000
ASUS44 KMEG 221000
RWRTN
TENNESSEE HOURLY STATE WEATHER ROUNDUP
NATIONAL WEATHER SERVICE MEMPHIS TN
500 AM CDT WED MAR 22 2017

TNZ002-004-019-021-049-052-054-088>092-221100-
WEST TENNESSEE

CITY           SKY/WX    TMP DP  RH WIND       PRES   REMARKS
MEMPHIS INTL   CLOUDY    53  42  66 NE15      30.20S
NWS MEMPHIS      N/A     49 N/A N/A MISG        N/A
JACKSON        LGT RAIN  49  47  93 N9        30.23R
DYERSBURG      LGT RAIN  48  41  76 N10       30.25R
PARIS          MOCLDY    45  36  70 N10       30.24R
$$

TNZ008-025-027-028-033-062-065-066-221100-
NORTH MIDDLE TENNESSEE

CITY           SKY/WX    TMP DP  RH WIND       PRES   REMARKS
NASHVILLE      CLOUDY    50  35  56 NE17G24   30.21R
CLARKSVILLE    CLOUDY    49  35  58 NE10      30.24R
SMYRNA         CLOUDY    50  37  61 NE17      30.21R
CROSSVILLE     PTCLDY    46  39  76 N9        30.16R
$$

TNZ061-075-076-078-094-096-097-221100-
SOUTH MIDDLE TENNESSEE

CITY           SKY/WX    TMP DP  RH WIND       PRES   REMARKS
TULLAHOMA      CLEAR     50  45  81 N6        30.16S
WINCHESTER     PTCLDY    52  46  82 N7        30.15S
COLUMBIA       CLOUDY   N/A N/A N/A N6        30.16R
SHELBYVILLE    PTCLDY    52  46  82 N9        30.18R
$$

TNZ017-018-042-046-047-221100-
NORTHEAST TENNESSEE

CITY           SKY/WX    TMP DP  RH WIND       PRES   REMARKS
TRI CITIES     PTCLDY    48  39  71 N8        30.12R
$$

TNZ012-013-036-069-073-074-221100-
CENTRAL EAST TENNESSEE

CITY           SKY/WX    TMP DP  RH WIND       PRES   REMARKS
KNOXVILLE      PTCLDY    52  43  71 N8        30.12R
OAK RIDGE      PTCLDY    52  38  58 VRB7      30.15R
GATLINBURG     CLOUDY    52  46  82 CALM      30.12R
$$

TNZ083-085-099-221100-
SOUTHEAST TENNESSEE

CITY           SKY/WX    TMP DP  RH WIND       PRES   REMARKS
CHATTANOOGA    CLOUDY    54  44  69 N8        30.12R
$$

SKY/WX REPORTED AS FAIR MEANS FEW OR NO CLOUDS BELOW
12 THOUSAND FEET.





USA.gov is the U.S. government's official web portal to all federal, state and local government web resources and services.